"Pseudo-MPEC" for P118fWD

Created 2020 Oct 21 14:07:28 UT using Find_Orb

Click here for an explanation of pseudo-MPECs

 
 Astrometry: 
     P118fWD  C2020 10 17f6lCE`8B!SedyM9xb+E^AstrometryB@Bv7GLI)ZI.lSf_uhl;,kF51
     P118fWD  C2020 10 17ByD*^iB'cdWe)$Hredacted;^q0e+#mso.Z;PY_4(1yFu0clickFF51
     P118fWD  C2020 10 17;:here$cpc[forZ(yx3FaKexplanation.Af9T%MLb8K.h\.)P3lF51
     P118fWD ^C2020 10 20.52501205 00 36.559-22 42 33.69   ~AKGb 21.10GVNEOCP568
     P118fWD ^C2020 10 20.52595905 00 36.518-22 42 33.73   ~AKGb 21.06GVNEOCP568
     P118fWD ^C2020 10 20.52692005 00 36.477-22 42 33.76   ~AKGb 21.24GVNEOCP568
     P118fWD KC2020 10 21.35969405 00 02.18 -22 42 44.0    ~AL9M 20.64GVNEOCPI52
     P118fWD KC2020 10 21.36732205 00 01.85 -22 42 43.4    ~AL9M 21.20GVNEOCPI52
     P118fWD KC2020 10 21.37455505 00 01.57 -22 42 43.4    ~AL9M 20.86GVNEOCPI52
     P118fWD KC2020 10 21.38138805 00 01.26 -22 42 44.0    ~AL9M 20.81GVNEOCPI52

Station data:
(568) Mauna Kea  (N19.826116 W155.472200)  US/Hawaii.
(F51) Pan-STARRS 1, Haleakala  (N20.707235 W156.255910)  US/Hawaii.
   Observers N. Primak, A. Schultz, S. Watters, J. Thiel, T. Goggia. Measurer
   PS1 Science Consortium. 1.8-m Ritchey-Chrétien + CCD.
(I52) Steward Observatory, Mt. Lemmon Station  (N32.442547 W110.788920)
   US/Arizona.  Observers T. A. Pruyne, B. M. Africano, E. J. Christensen, G.
   A. Farneth, D. C. Fuls, A. R. Gibbs, A. D. Grauer, H. Gröller, J. A.
   Johnson, R. A. Kowalski, S. M. Larson, G. J. Leonard, D. Rankin, R. L.
   Seaman, F. C. Shelly. 1.0-m reflector + CCD.

Orbital elements:  P118fWD
   Perihelion 2020 Jun 16.831135 +/- 3.7 TT = 19:56:50 (JD 2459017.331135)
Epoch 2020 Oct 21.0 TT = JDT 2459143.5   Earth MOID: 0.7641   AutoNEOCP
M  31.37218414 +/- 2.8              (J2000 ecliptic)
n   0.24865234 +/- 0.0164           Peri.  241.17992 +/- 3.0
a   2.50461518 +/- 0.11             Node    99.18911 +/- 1.9
e   0.3473330 +/- 0.0488            Incl.   31.81587 +/- 0.9
P   3.96                   H 18.5   G  0.15   U 10.0  
q 1.63467945 +/- 0.0526    Q 3.37455092 +/- 0.275
From 10 observations 2020 Oct. 17-21; mean residual 0".22
Residuals in arcseconds: 
201017 F51  .01+  .08+    201020 568  .00   .01-    201021 I52  .36+  .34+    
201017 F51  .05+  .10-    201020 568  .01+  .02-    201021 I52  .34+  .21-    
201017 F51  .05-  .03+    201021 I52  .45-  .39-    
201020 568  .00   .01+    201021 I52  .27-  .28+    

Ephemerides (geocentric):
Date (UTC) HH   RA              Dec         delta   r     elong  mag " sig PA
---- -- -- --  -------------   -----------  ------ ------ -----  --- ---- ---
2020 10 21 14  04 59 52.474   -22 42 37.84  1.1752 1.8979 121.7 21.4 .409 166
2020 10 21 15  04 59 50.683   -22 42 37.74  1.1751 1.8980 121.8 21.4 .435 167
2020 10 21 16  04 59 48.888   -22 42 37.61  1.1750 1.8982 121.8 21.4 .461 167
2020 10 21 17  04 59 47.088   -22 42 37.45  1.1749 1.8983 121.8 21.4 .488 168
2020 10 21 18  04 59 45.283   -22 42 37.25  1.1748 1.8985 121.8 21.4 .515 169
2020 10 21 19  04 59 43.474   -22 42 37.01  1.1746 1.8986 121.9 21.4 .543 169
2020 10 21 20  04 59 41.661   -22 42 36.75  1.1745 1.8988 121.9 21.4 .571 169
2020 10 21 21  04 59 39.843   -22 42 36.44  1.1744 1.8989 121.9 21.4 .600 170
2020 10 21 22  04 59 38.021   -22 42 36.10  1.1743 1.8991 122.0 21.4 .629 170
2020 10 21 23  04 59 36.194   -22 42 35.73  1.1742 1.8992 122.0 21.4 .658 171
2020 10 22 00  04 59 34.363   -22 42 35.32  1.1741 1.8994 122.0 21.4 .688 171
2020 10 22 01  04 59 32.527   -22 42 34.87  1.1739 1.8995 122.0 21.4 .719 171
2020 10 22 02  04 59 30.687   -22 42 34.39  1.1738 1.8997 122.1 21.4 .749 172
2020 10 22 03  04 59 28.842   -22 42 33.88  1.1737 1.8998 122.1 21.4 .781 172
2020 10 22 04  04 59 26.993   -22 42 33.33  1.1736 1.9000 122.1 21.4 .813 172
2020 10 22 05  04 59 25.139   -22 42 32.74  1.1735 1.9001 122.2 21.4 .845 173
2020 10 22 06  04 59 23.281   -22 42 32.12  1.1734 1.9003 122.2 21.4 .878 173
2020 10 22 07  04 59 21.419   -22 42 31.46  1.1732 1.9004 122.2 21.4 .911 173
2020 10 22 08  04 59 19.552   -22 42 30.77  1.1731 1.9006 122.2 21.4 .944 174
2020 10 22 09  04 59 17.681   -22 42 30.04  1.1730 1.9007 122.3 21.4 .978 174
2020 10 22 10  04 59 15.805   -22 42 29.28  1.1729 1.9009 122.3 21.4 1.01 174
2020 10 22 11  04 59 13.924   -22 42 28.48  1.1728 1.9010 122.3 21.4 1.05 174
2020 10 22 12  04 59 12.040   -22 42 27.64  1.1727 1.9012 122.4 21.4 1.08 175
2020 10 22 13  04 59 10.151   -22 42 26.77  1.1726 1.9013 122.4 21.4 1.12 175
2020 10 22 14  04 59 08.257   -22 42 25.86  1.1724 1.9015 122.4 21.4 1.16 175
2020 10 22 15  04 59 06.359   -22 42 24.92  1.1723 1.9016 122.4 21.4 1.19 175
2020 10 22 16  04 59 04.457   -22 42 23.94  1.1722 1.9018 122.5 21.4 1.23 176
2020 10 22 17  04 59 02.550   -22 42 22.92  1.1721 1.9019 122.5 21.4 1.27 176
2020 10 22 18  04 59 00.638   -22 42 21.87  1.1720 1.9021 122.5 21.4 1.30 176
2020 10 22 19  04 58 58.723   -22 42 20.78  1.1719 1.9022 122.6 21.4 1.34 176
2020 10 22 20  04 58 56.803   -22 42 19.66  1.1718 1.9024 122.6 21.4 1.38 177
2020 10 22 21  04 58 54.878   -22 42 18.50  1.1716 1.9025 122.6 21.4 1.42 177
2020 10 22 22  04 58 52.949   -22 42 17.30  1.1715 1.9027 122.6 21.4 1.46 177
2020 10 22 23  04 58 51.016   -22 42 16.07  1.1714 1.9028 122.7 21.4 1.50 177
2020 10 23 00  04 58 49.078   -22 42 14.80  1.1713 1.9030 122.7 21.4 1.54 178
2020 10 23 01  04 58 47.136   -22 42 13.49  1.1712 1.9031 122.7 21.4 1.58 178
2020 10 23 02  04 58 45.189   -22 42 12.15  1.1711 1.9032 122.8 21.4 1.62 178
2020 10 23 03  04 58 43.239   -22 42 10.77  1.1710 1.9034 122.8 21.4 1.67 178
2020 10 23 04  04 58 41.283   -22 42 09.35  1.1709 1.9035 122.8 21.4 1.71 178
2020 10 23 05  04 58 39.323   -22 42 07.90  1.1708 1.9037 122.9 21.4 1.75 179
2020 10 23 06  04 58 37.359   -22 42 06.41  1.1706 1.9038 122.9 21.4 1.79 179
2020 10 23 07  04 58 35.391   -22 42 04.88  1.1705 1.9040 122.9 21.4 1.84 179
2020 10 23 08  04 58 33.418   -22 42 03.32  1.1704 1.9041 122.9 21.4 1.88 179
2020 10 23 09  04 58 31.441   -22 42 01.72  1.1703 1.9043 123.0 21.4 1.93   0
2020 10 23 10  04 58 29.459   -22 42 00.08  1.1702 1.9044 123.0 21.4 1.97   0
2020 10 23 11  04 58 27.473   -22 41 58.41  1.1701 1.9046 123.0 21.4 2.02   0
2020 10 23 12  04 58 25.483   -22 41 56.70  1.1700 1.9047 123.1 21.4 2.06   0
2020 10 23 13  04 58 23.488   -22 41 54.95  1.1699 1.9049 123.1 21.4 2.11   0